Trang, Thailand

9:13 PM ICT on December 05, 2016 (GMT +0700)
Trang

Weather History for 48567 - February, 2014

Change the Weather History Date:

Saturday, February 1, 2014

  Actual Average Record
Temperature  
Mean Temperature 80 °F -  
Max Temperature 90 °F - - ()
Min Temperature 70 °F - - ()
Cooling Degree Days 15    
Growing Degree Days 30 (Base 50)    
Moisture  
Dew Point 65 °F    
Average Humidity 55    
Maximum Humidity 83    
Minimum Humidity 35    
Precipitation  
Precipitation 0.00 in - - ()
Sea Level Pressure  
Sea Level Pressure 29.87 in    
Wind  
Wind Speed 7 mph ()    
Max Wind Speed 14 mph    
Max Gust Speed -    
Visibility 5.9 miles    
Events      
T = Trace of Precipitation, MM = Missing Value Source: Averaged Metar Reports

Daily Weather History Graph

Daily Weather History Graph

Search for Another Location

Airport or City:

Trip Planner

Search our weather history database for the weather conditions in past years. The results will help you decide how hot, cold, wet, or windy it might be!

Date:

Astronomy

Feb. 01, 2014 Rise Set
Actual Time 6:40 AM ICT 6:29 PM ICT
Civil Twilight 6:19 AM ICT 6:51 PM ICT
Nautical Twilight 5:53 AM ICT 7:16 PM ICT
Astronomical Twilight 5:28 AM ICT 7:41 PM ICT
Moon 7:36 AM ICT (2/1) 7:54 PM ICT (2/1)
Length of Visible Light 12h 32m
Length of Day
11h 48m
Waxing Crescent, 3% of the Moon is Illuminated
Feb 1
Waxing Crescent
Feb 7
First Quarter
Feb 15
Full
Feb 23
Last Quarter
Mar 1
New

Hourly Weather History & Observations

Time (ICT) Temp. Heat Index Dew Point Humidity Pressure Visibility Wind Dir Wind Speed Gust Speed Precip Events Conditions
1:00 AM 74 °F - 67 °F 74% 29.91 in 6 mi ENE 4.6 mph - -   Scattered Clouds
4:00 AM 73 °F - 66 °F 74% 29.87 in 5 mi NE 4.6 mph - -   Mist
7:00 AM 71 °F - 66 °F 78% 29.89 in 5 mi NE 4.6 mph - -   Mist
7:00 AM 71.6 °F - 66.2 °F 83% 29.89 in 5.0 mi NE 5.8 mph - N/A   Mostly Cloudy
8:00 AM 73.4 °F - 66.2 °F 78% 29.89 in 5.6 mi NNE 4.6 mph - N/A   Mostly Cloudy
9:00 AM 78.8 °F - 64.4 °F 61% 29.92 in 5.6 mi NE 12.7 mph - N/A   Mostly Cloudy
10:00 AM 84 °F - 62 °F 38% 29.93 in 6 mi ENE 12.7 mph - -   Scattered Clouds
10:00 AM 84.2 °F 85.0 °F 62.6 °F 48% 29.92 in 6.2 mi ENE 12.7 mph - N/A   Mostly Cloudy
11:00 AM 86.0 °F 86.6 °F 62.6 °F 45% 29.89 in 6.2 mi NE 9.2 mph - N/A   Mostly Cloudy
12:00 PM 87.8 °F 88.5 °F 62.6 °F 43% 29.89 in 6.2 mi NE 13.8 mph - N/A   Mostly Cloudy
1:00 PM 89 °F - 65 °F 35% 29.87 in 6 mi NNE 11.5 mph - -   Scattered Clouds
1:00 PM 87.8 °F 89.4 °F 64.4 °F 46% 29.86 in 6.2 mi ENE 9.2 mph - N/A   Mostly Cloudy
2:00 PM 89.6 °F 91.1 °F 64.4 °F 43% 29.83 in 6.2 mi ENE 11.5 mph - N/A   Mostly Cloudy
3:00 PM 89.6 °F 91.1 °F 64.4 °F 43% 29.80 in 6.2 mi East 12.7 mph - N/A   Mostly Cloudy
4:00 PM 87 °F - 65 °F 38% 29.80 in 6 mi ENE 11.5 mph - -   Scattered Clouds
4:00 PM 87.8 °F 89.4 °F 64.4 °F 46% 29.77 in 6.2 mi NNE 9.2 mph - N/A   Mostly Cloudy
5:00 PM 84.2 °F 85.6 °F 64.4 °F 51% 29.80 in 6.2 mi ENE 11.5 mph - N/A   Mostly Cloudy
7:00 PM 80 °F - 66 °F 53% 29.83 in 6 mi NE 4.6 mph - -   Scattered Clouds
10:00 PM 73 °F - 66 °F 74% 29.89 in 6 mi Calm Calm - -   Scattered Clouds